sat.trackr.live / text

‹ back to catalog

STARLINK-30569

NORAD 58068 · 2023-158T

PAYLOAD ACTIVE UNKNOWN

§ Identity

Operator
Country
US
Launch date
2023-10-13
Launch site
AFETR
Launch vehicle
Mass (kg)
RCS (m²)

Purposes: comms

External: N2YO · Heavens-Above · Gunter

§ Orbital elements

Epoch: 2026-05-24T21:21:27.499968Z

Period
94.27 min
Inclination
43.0045°
Eccentricity
0.0001714
Mean motion
15.27572826 rev/d
Perigee alt
481.9 km
Apogee alt
484.2 km
Semi-major
6,861.2 km
B*
-2.3848e-5
RAAN
320.1277°
Arg perigee
262.6348°
Mean anomaly
97.4309°
Rev number
14,518

§ Raw data

STARLINK-305691 58068U 23158T   26144.88990162 -.00000918  00000+0 -23848-4 0  99942 58068  43.0045 320.1277 0001714 262.6348  97.4309 15.27572826145187

JSON: /api/v1/satellites/58068 · /tle

For live sub-satellite position, see the globe view (requires WebGL).

§ Visibility from observer

Set your observer location to see the next 7 days of passes ≥ 10°. The values pass through the URL so the page stays shareable.

No JS? Fill the form by hand. The geolocation button needs JavaScript.